Voltar ao catálogo

STARLINK-33922

AtivoComunicaçõesVLEO
NORAD 63698·PAYLOAD·🇺🇸 United States

Lançado Apr 28, 2025 de Vandenberg Space Force Base

Loading…

Próximas Passagens (próximas 24 horas)

TLE

AtualizadoSource: CelesTrak SupGP

Época: Sep 14, 2026, 21:32 UTC

1 63698C 25087B   26257.89770833  .00032142  00000+0  94990-3 0  2573
2 63698  53.1605  59.7132 0001193  69.9474 240.1439 15.34366686    16

Acompanhe STARLINK-33922 em tempo real com AllMySat

Download on the App Store